Regional Weather Roundup
Issued by NWS Sterling, VA

Home | Current Version | Previous Version | Graphics & Text | Print | Product List | Glossary On
Versions: 1 2 3 4 5 6 7 8 9 10 11 12 13 14 15 16 17 18 19 20 21 22 23 24 25 26 27 28 29 30 31 32 33 34 35 36 37 38 39 40 41 42 43 44 45 46 47 48 49 50
432
ASUS41 KLWX 072010
RWRLWX

REGIONAL WEATHER ROUNDUP
NATIONAL WEATHER SERVICE BALTIMORE MD/WASHINGTON DC
300 PM EST WED DEC 07 2016

Note: "FAIR" indicates few or no clouds below 12,000 feet
with no significant weather and/or obstructions to visibility.
 TC=TEMPERATURE CELSIUS

 * =Non NWS site. Station does not report precipitation (e.g. rain,
    snow, etc.), thunder, or fog.

DCZ001-MDZ009-015-VAZ040>042-051-053>054-072100-
WASHINGTON METRO

CITY           SKY/WX    TMP DP  RH WIND       PRES   REMARKS
WASHINGTON NAT MOSUNNY   51  30  44 NW7       30.06R
DULLES         MOSUNNY   50  29  44 W7        30.05R
ANDREWS AFB    SUNNY     49  28  42 NW14      30.04R
FT BELVOIR     SUNNY     51  29  42 NW12      30.05R
QUANTICO       MOSUNNY   52  30  43 N9        30.06R
LEESBURG*      SUNNY     50  34  53 NW7       30.05R
MANASSAS*      SUNNY    N/A N/A N/A N12       30.06R
GAITHERSBURG*  SUNNY     46  28  49 NW9       30.08R

$$

MDZ006>007-011-014-072100-
BALTIMORE METRO

CITY           SKY/WX    TMP DP  RH WIND       PRES   REMARKS
BWI AIRPORT    MOSUNNY   51  30  44 NW7       30.03R
MD SCIENCE CTR   N/A     50  28  42 MISG      30.00F
MARTIN STATE   SUNNY     52  37  58 W13       30.03
ANNAPOLIS      SUNNY     52  35  52 NW9       30.03R

$$

MDZ012-015-019>023-072100-
MARYLAND EASTERN SHORE

CITY           SKY/WX    TMP DP  RH WIND       PRES   REMARKS
OCEAN CITY     CLOUDY    48  42  80 NW9       30.02R
SALISBURY      CLOUDY    48  41  76 N10       30.02R
EASTON*        PTSUNNY   50  39  66 N6        30.06R

$$

MDZ017>025-072100-
SOUTHERN MARYLAND

CITY           SKY/WX    TMP DP  RH WIND       PRES   REMARKS
PATUXENT RIVER MOSUNNY   51  38  60 NW14      30.03R
ST INIGOES     MOSUNNY   51  41  68 W12       30.03R
LEONARDTOWN*   NOT AVBL

$$

MDZ003>005-072100-
NORTH CENTRAL MARYLAND

CITY           SKY/WX    TMP DP  RH WIND       PRES   REMARKS
FREDERICK*     SUNNY     46  34  61 W6        30.07S
HAGERSTOWN APT SUNNY     49  25  39 W9        30.02R
WESTMINSTER*   SUNNY     45  32  61 W6        30.02R

$$

MDZ501>502-072100-
WESTERN MARYLAND

CITY           SKY/WX    TMP DP  RH WIND       PRES   REMARKS
OAKLAND*       NOT AVBL
CUMBERLAND*    NOT AVBL

$$

VAZ025>031-072100-
SHENANDOAH VALLEY

CITY           SKY/WX    TMP DP  RH WIND       PRES   REMARKS
WINCHESTER*    CLOUDY    46  27  46 NW10      30.03R
FRONT ROYAL*   FAIR      50  32  50 W7        30.02S
LURAY*         FAIR      52  34  50 CALM      30.02S
NEW MARKET*    FAIR      50  29  44 CALM      30.01S
STAUNTON*      SUNNY     49  33  54 CALM      30.04R
WAYNESBORO*    FAIR      51  28  41 SW6       30.01S

$$

WVZ021-048>050-054>055-072100-
EASTERN WEST VIRGINIA PANHANDLE

CITY           SKY/WX    TMP DP  RH WIND       PRES   REMARKS
MARTINSBURG    SUNNY     49  25  39 NW9       30.02S
PETERSBURG*    SUNNY     52  22  31 W9        30.04R

$$

VAZ036>039-050-072100-
CENTRAL FOOTHILLS

CITY           SKY/WX    TMP DP  RH WIND       PRES   REMARKS
CHARLOTTESVILL SUNNY     54  34  46 SE3       30.02R
CULPEPER*      SUNNY     52  34  49 CALM      30.05R
ORANGE*          N/A     54  36  50 CALM      30.05R
GORDONSVILLE*  FAIR      54  34  46 NW3       30.02S
WARRENTON*     FAIR      53  26  35 NW3       30.04R

$$

VAZ055>057-072100-
NORTH AND CENTRAL PIEDMONT

CITY           SKY/WX    TMP DP  RH WIND       PRES   REMARKS
FREDERICKSBRG* SUNNY     54  32  44 NW5       30.04R
STAFFORD*      SUNNY     51  32  48 N6        30.08R

$$

NCZ024-NYZ072-PAZ021-071-VAZ022-071-072100-
OTHER REGIONAL OBSERVATIONS

CITY           SKY/WX    TMP DP  RH WIND       PRES   REMARKS
NEW YORK CITY  CLOUDY    44  38  79 W5        30.00R
PHILADELPHIA   PTSUNNY   47  36  65 N8        30.02R
PITTSBURGH     CLOUDY    41  24  51 SW9       30.05R
ROANOKE        SUNNY     55  29  36 NW7       30.04R
RICHMOND       MOSUNNY   55  37  50 NW7       30.02S
RALEIGH        MOSUNNY   60  41  49 SW5       30.01F

$$

ANZ530>537-072100-
MARINE OBSERVATIONS

STATION/POSITION TIME  TEMP    WIND        PRES
                       AIR SEA DIR/SP/G
                 (UTC) (F)     (DEG/KT/KT) (MB)
THOMAS PT LIGHT  2000   49 49  290/  9/ 10   N/A
BALT KEY BRIDGE  1948   50     300/ 11/ 12 1016.6R
COVE POINT       1948   49      20/  7/ 10 1017.4R
LEWISETTA        1948   50 49  340/  8/ 11 1016.6R
SOLOMONS ISLAND  1942   51 51  320/  6/ 11   N/A
PINEY POINT      1948          310/ 13/ 15   N/A

$$





USA.gov is the U.S. government's official web portal to all federal, state and local government web resources and services.